Database: COMPET-N - COOP - 3PL - 4PL - CNDOOM

WAD: Doom | Doom 2 | TNT | Plutonia | AV | HR | Scythe | MM | MM2 | Requiem | CE
Category: speed | nmare | max | nm100s | tyson | pacifist | fast | respawn | nomo | misc | built | all
Highscore: ALL | IWAD | PWAD | Country | Continent

Remove: wad | map | category | player | all
MapPlayerTimeDateFilenameCommentsDL
Final Doom, The Plutonia Experiment - Ultra Violence Max
MAP11: HuntedM. Phoenix Dailey2:30.002015-07-31pl11-230.zip - 332
MAP11: HuntedM. Phoenix Dailey2:31.002013-03-02pl11-231.zip - 282
MAP11: HuntedM. Phoenix Dailey2:33.002013-02-22pl11-233.zip - 272
MAP11: HuntedM. Phoenix Dailey2:36.002012-03-10pl11-236.zip - 267
MAP11: HuntedM. Phoenix Dailey2:37.002012-03-10pl11-237.zip - 256
MAP11: HuntedM. Phoenix Dailey2:38.002012-03-10pl11-238.zip - 262
MAP11: HuntedM. Phoenix Dailey2:40.002012-03-09pl11-240.zip - 242
MAP11: HuntedM. Phoenix Dailey2:41.002012-02-15pl11-241.zip - 259
MAP11: HuntedM. Phoenix Dailey2:44.002011-12-22pl11-244.zip - 255
MAP11: HuntedM. Phoenix Dailey2:46.002009-11-18pl11-246.zip - 1077
Final Doom, The Plutonia Experiment - Ultra Violence Tyson
MAP11: HuntedM. Phoenix Dailey4:20.002012-02-15pt11-420.zip - 355
MAP11: HuntedM. Phoenix Dailey5:35.002011-04-08pt11-535.zip - 269
MAP11: HuntedM. Phoenix Dailey6:01.002011-04-06pt11-601.zip - 269
Final Doom, The Plutonia Experiment - Ultra Violence Fast
MAP11: HuntedM. Phoenix Dailey2:29.002014-03-14pf11-229.zip - 343
MAP11: HuntedM. Phoenix Dailey2:34.002011-06-02pf11-234.zip - 250
MAP11: HuntedM. Phoenix Dailey2:41.002011-05-29pf11-241.zip - 243
MAP11: HuntedM. Phoenix Dailey2:42.002011-03-03pf11-242.zip - 257
MAP11: HuntedM. Phoenix Dailey2:44.002011-03-03pf11-244.zip - 242
MAP18: NeurosphereM. Phoenix Dailey2:11.002013-03-12pf18-211.zip - 240
MAP19: NMEM. Phoenix Dailey2:33.002012-03-17pf19-233.zip - 324
MAP19: NMEM. Phoenix Dailey3:11.002012-03-15pf19-311.zip - 233
MAP19: NMEM. Phoenix Dailey3:51.002012-03-14pf19-351.zip - 261
Final Doom, The Plutonia Experiment - Ultra Violence Respawn
MAP07: CaughtyardM. Phoenix Dailey1:55.002014-03-16pr07-155.zip - 512
MAP11: HuntedM. Phoenix Dailey2:45.002012-02-17pr11-245.zip - 317
MAP18: NeurosphereM. Phoenix Dailey1:48.002013-03-11pr18-148.zip - 365
MAP32: Go 2 ItM. Phoenix Dailey2:04.002012-02-22pr32-204.zip - 320
Remove: wad | map | category | player | all